Time,TemperatureF,DewpointF,PressureIn,WindDirection,WindDirectionDegrees,WindSpeedMPH,WindSpeedGustMPH,Humidity,HourlyPrecipIn,Conditions,Clouds,dailyrainin,SoftwareType,DateUTC
2013-01-01 05:31:00,27.0,26.8,29.82,NE,45,0.0,-999.0,99,-99.99,,,0.01,meteohub,2013-01-01 13:31:00,
2013-01-01 05:32:00,27.0,26.8,29.82,NE,45,0.0,-999.0,99,-99.99,,,0.01,meteohub,2013-01-01 13:32:00,
2013-01-01 05:34:00,27.0,26.8,29.82,NE,45,0.0,-999.0,99,-99.99,,,0.01,meteohub,2013-01-01 13:34:00,
2013-01-01 05:39:00,27.0,26.8,29.81,NE,45,0.0,0.0,99,0.00,,,0.01,meteohub,2013-01-01 13:39:00,
2013-01-01 05:44:00,26.8,26.6,29.82,NE,45,0.0,0.0,99,0.00,,,0.01,meteohub,2013-01-01 13:44:00,
2013-01-01 05:50:00,26.6,26.4,29.82,NE,45,0.0,0.0,99,0.00,,,0.01,meteohub,2013-01-01 13:50:00,
2013-01-01 05:55:00,26.4,26.2,29.82,NE,45,0.0,0.0,99,0.00,,,0.01,meteohub,2013-01-01 13:55:00,
2013-01-01 06:00:00,26.4,26.2,29.82,NE,45,0.0,0.0,99,0.00,,,0.01,meteohub,2013-01-01 14:00:00,
2013-01-01 06:05:00,26.4,26.2,29.82,NE,45,0.0,0.0,99,0.00,,,0.01,meteohub,2013-01-01 14:05:00,
2013-01-01 06:10:00,26.6,26.4,29.82,NE,45,0.0,0.0,99,0.00,,,0.01,meteohub,2013-01-01 14:10:00,
2013-01-01 06:15:00,26.8,26.6,29.82,NE,45,0.0,0.0,99,0.00,,,0.01,meteohub,2013-01-01 14:15:00,
2013-01-01 06:20:00,26.8,26.6,29.83,NE,45,0.0,0.0,99,0.00,,,0.01,meteohub,2013-01-01 14:20:00,
2013-01-01 06:25:00,26.6,26.4,29.83,NE,45,0.0,0.0,99,0.00,,,0.01,meteohub,2013-01-01 14:25:00,
2013-01-01 06:30:00,26.6,26.4,29.82,NE,45,0.0,0.0,99,0.00,,,0.01,meteohub,2013-01-01 14:30:00,
2013-01-01 06:35:00,26.6,26.4,29.83,NE,45,0.0,0.0,99,0.00,,,0.01,meteohub,2013-01-01 14:35:00,
2013-01-01 06:40:00,26.6,26.4,29.82,NE,45,0.0,0.0,99,0.00,,,0.01,meteohub,2013-01-01 14:40:00,
2013-01-01 06:45:00,26.6,26.4,29.82,NE,45,0.0,0.0,99,0.00,,,0.01,meteohub,2013-01-01 14:45:00,
2013-01-01 06:50:00,26.6,26.4,29.83,NE,45,0.0,0.0,99,0.00,,,0.01,meteohub,2013-01-01 14:50:00,
2013-01-01 06:55:00,26.6,26.4,29.83,NE,45,0.0,0.0,99,0.00,,,0.01,meteohub,2013-01-01 14:55:00,
2013-01-01 07:00:00,26.6,26.4,29.83,NE,45,0.0,0.0,99,0.00,,,0.01,meteohub,2013-01-01 15:00:00,
2013-01-01 07:05:00,26.8,26.6,29.83,NE,45,0.0,0.0,99,0.00,,,0.01,meteohub,2013-01-01 15:05:00,
2013-01-01 07:11:00,26.8,26.6,29.83,NE,45,0.0,0.0,99,0.00,,,0.01,meteohub,2013-01-01 15:11:00,
2013-01-01 07:16:00,26.8,26.6,29.83,NE,45,0.0,0.0,99,0.00,,,0.01,meteohub,2013-01-01 15:16:00,
2013-01-01 07:21:00,26.8,26.6,29.83,NE,45,0.0,0.0,99,0.00,,,0.01,meteohub,2013-01-01 15:21:00,
2013-01-01 07:26:00,26.8,26.6,29.84,NE,45,0.0,0.0,99,0.00,,,0.01,meteohub,2013-01-01 15:26:00,
2013-01-01 07:31:00,26.8,26.6,29.83,NE,45,0.0,0.0,99,0.00,,,0.01,meteohub,2013-01-01 15:31:00,
2013-01-01 07:36:00,26.6,26.4,29.83,NE,45,0.0,0.0,99,0.00,,,0.01,meteohub,2013-01-01 15:36:00,
2013-01-01 07:41:00,26.6,26.4,29.84,NE,45,0.0,0.0,99,0.00,,,0.01,meteohub,2013-01-01 15:41:00,
2013-01-01 07:46:00,26.6,26.4,29.84,NE,45,0.0,0.0,99,0.00,,,0.01,meteohub,2013-01-01 15:46:00,
2013-01-01 07:51:00,26.6,26.4,29.84,NE,45,0.0,0.0,99,0.00,,,0.01,meteohub,2013-01-01 15:51:00,
2013-01-01 07:56:00,26.4,26.2,29.84,NE,45,0.0,0.0,99,0.00,,,0.01,meteohub,2013-01-01 15:56:00,
2013-01-01 08:01:00,26.4,26.2,29.85,NE,45,0.0,0.0,99,0.00,,,0.01,meteohub,2013-01-01 16:01:00,
2013-01-01 08:06:00,26.4,26.2,29.85,NE,45,0.0,0.0,99,0.00,,,0.01,meteohub,2013-01-01 16:06:00,
2013-01-01 08:28:00,27.1,27.0,29.86,NE,45,0.0,-999.0,99,0.00,,,0.01,meteohub,2013-01-01 16:28:00,
2013-01-01 08:33:00,27.1,27.0,29.86,NE,45,0.0,-999.0,99,0.00,,,0.01,meteohub,2013-01-01 16:33:00,
2013-01-01 08:38:00,27.1,27.0,29.86,NE,45,0.0,0.0,99,0.00,,,0.01,meteohub,2013-01-01 16:38:00,
2013-01-01 08:50:00,27.9,27.7,29.86,NE,45,0.0,0.0,99,0.00,,,0.01,meteohub,2013-01-01 16:50:00,
2013-01-01 08:55:00,28.8,28.6,29.86,NE,45,0.0,0.0,99,0.00,,,0.01,meteohub,2013-01-01 16:55:00,
2013-01-01 09:00:00,31.1,30.9,29.87,NE,45,0.0,0.0,99,0.00,,,0.01,meteohub,2013-01-01 17:00:00,
2013-01-01 09:05:00,31.1,30.9,29.86,NE,45,0.0,0.0,99,0.00,,,0.01,meteohub,2013-01-01 17:05:00,
2013-01-01 09:10:00,32.7,32.5,29.86,NE,45,0.0,0.0,99,0.00,,,0.01,meteohub,2013-01-01 17:10:00,
2013-01-01 09:15:00,33.6,33.4,29.86,NE,45,0.0,0.0,99,0.00,,,0.01,meteohub,2013-01-01 17:15:00,
2013-01-01 09:20:00,34.5,34.3,29.87,NE,45,0.0,0.0,99,0.00,,,0.01,meteohub,2013-01-01 17:20:00,
2013-01-01 09:25:00,35.2,34.5,29.87,NE,45,0.0,0.0,97,0.00,,,0.01,meteohub,2013-01-01 17:25:00,
2013-01-01 09:30:00,35.8,34.7,29.87,NE,45,0.0,0.0,96,0.00,,,0.01,meteohub,2013-01-01 17:30:00,
2013-01-01 09:35:00,36.7,35.1,29.87,NE,45,0.0,0.0,94,0.00,,,0.01,meteohub,2013-01-01 17:35:00,
2013-01-01 09:40:00,36.3,34.0,29.87,NE,45,0.0,0.0,91,0.01,,,0.02,meteohub,2013-01-01 17:40:00,
2013-01-01 09:45:00,36.7,34.0,29.87,NE,45,0.0,0.0,90,0.01,,,0.02,meteohub,2013-01-01 17:45:00,
2013-01-01 09:51:00,36.9,33.1,29.88,NE,45,0.0,0.0,86,0.01,,,0.02,meteohub,2013-01-01 17:51:00,
2013-01-01 09:56:00,36.7,32.9,29.88,NE,45,0.0,0.0,86,0.01,,,0.02,meteohub,2013-01-01 17:56:00,
2013-01-01 10:01:00,37.9,33.6,29.88,NE,45,0.0,0.0,84,0.01,,,0.02,meteohub,2013-01-01 18:01:00,
2013-01-01 10:06:00,39.6,34.2,29.88,NE,45,0.0,0.0,81,0.01,,,0.02,meteohub,2013-01-01 18:06:00,
2013-01-01 10:11:00,40.5,34.2,29.88,NE,45,0.0,0.0,78,0.01,,,0.02,meteohub,2013-01-01 18:11:00,
2013-01-01 10:16:00,41.4,34.0,29.88,SW,225,0.0,0.0,75,0.01,,,0.02,meteohub,2013-01-01 18:16:00,
2013-01-01 10:21:00,38.8,32.9,29.88,SW,225,0.0,0.0,79,0.01,,,0.02,meteohub,2013-01-01 18:21:00,
2013-01-01 10:26:00,37.9,32.9,29.88,West,270,0.0,0.0,82,0.01,,,0.02,meteohub,2013-01-01 18:26:00,
2013-01-01 10:31:00,37.9,32.9,29.88,West,270,0.0,0.0,82,0.01,,,0.02,meteohub,2013-01-01 18:31:00,
2013-01-01 10:36:00,39.9,35.2,29.88,South,180,0.0,0.0,83,0.01,,,0.02,meteohub,2013-01-01 18:36:00,
2013-01-01 10:41:00,40.5,34.7,29.88,SW,225,0.0,0.0,80,0.00,,,0.02,meteohub,2013-01-01 18:41:00,
2013-01-01 10:46:00,41.0,35.1,29.88,South,180,0.0,0.0,79,0.00,,,0.02,meteohub,2013-01-01 18:46:00,
2013-01-01 10:51:00,41.0,35.1,29.88,South,180,0.0,0.0,79,0.00,,,0.02,meteohub,2013-01-01 18:51:00,
2013-01-01 10:56:00,41.0,35.1,29.88,South,180,0.0,0.0,79,0.00,,,0.02,meteohub,2013-01-01 18:56:00,
2013-01-01 21:10:00,29.3,27.5,29.78,South,180,0.0,-999.0,93,0.00,,,0.00,meteohub,2013-01-02 05:10:00,
2013-01-01 21:11:00,29.3,27.5,29.78,South,180,0.0,-999.0,93,0.00,,,0.00,meteohub,2013-01-02 05:11:00,
2013-01-01 21:16:00,29.3,27.5,29.78,South,180,0.0,0.0,93,0.00,,,0.00,meteohub,2013-01-02 05:16:00,
2013-01-01 21:21:00,28.8,27.0,29.79,South,180,0.0,0.0,93,0.00,,,0.00,meteohub,2013-01-02 05:21:00,
2013-01-01 21:26:00,28.8,27.0,29.78,South,180,0.0,0.0,93,0.00,,,0.00,meteohub,2013-01-02 05:26:00,
2013-01-01 21:31:00,28.6,26.8,29.78,South,180,0.0,0.0,93,0.00,,,0.00,meteohub,2013-01-02 05:31:00,
2013-01-01 21:36:00,28.6,26.8,29.78,South,180,0.0,0.0,93,0.00,,,0.00,meteohub,2013-01-02 05:36:00,
2013-01-01 21:42:00,28.8,27.3,29.78,NW,315,0.0,0.0,94,0.00,,,0.00,meteohub,2013-01-02 05:42:00,
2013-01-01 21:47:00,28.9,27.5,29.77,NE,45,0.0,0.0,94,0.00,,,0.00,meteohub,2013-01-02 05:47:00,
2013-01-01 21:52:00,29.1,27.3,29.78,SW,225,0.0,0.0,93,0.00,,,0.00,meteohub,2013-01-02 05:52:00,
2013-01-01 21:57:00,29.1,27.3,29.77,SW,225,0.0,0.0,93,0.00,,,0.00,meteohub,2013-01-02 05:57:00,
2013-01-01 22:02:00,28.6,26.8,29.77,SW,225,0.0,0.0,93,0.00,,,0.00,meteohub,2013-01-02 06:02:00,
2013-01-01 22:07:00,28.6,26.8,29.77,SW,225,0.0,0.0,93,0.00,,,0.00,meteohub,2013-01-02 06:07:00,
2013-01-01 22:13:00,28.6,26.8,29.77,SW,225,0.0,0.0,93,0.00,,,0.00,meteohub,2013-01-02 06:13:00,
2013-01-01 22:25:00,28.0,26.6,29.77,SW,225,0.0,-999.0,94,0.00,,,0.00,meteohub,2013-01-02 06:25:00,
2013-01-01 22:30:00,28.0,26.6,29.77,SW,225,0.0,0.0,94,0.00,,,0.00,meteohub,2013-01-02 06:30:00,
2013-01-01 22:35:00,28.2,26.8,29.77,SW,225,0.0,0.0,94,0.00,,,0.00,meteohub,2013-01-02 06:35:00,
2013-01-01 22:40:00,28.0,26.6,29.78,SW,225,0.0,0.0,94,0.00,,,0.00,meteohub,2013-01-02 06:40:00,
2013-01-01 22:45:00,27.9,26.4,29.78,SW,225,0.0,0.0,94,0.00,,,0.00,meteohub,2013-01-02 06:45:00,
2013-01-01 22:50:00,27.9,26.4,29.78,SW,225,0.0,0.0,94,0.00,,,0.00,meteohub,2013-01-02 06:50:00,
2013-01-01 22:55:00,27.9,26.4,29.77,SW,225,0.0,0.0,94,0.00,,,0.00,meteohub,2013-01-02 06:55:00,
2013-01-01 23:00:00,27.9,26.4,29.77,SW,225,0.0,0.0,94,0.00,,,0.00,meteohub,2013-01-02 07:00:00,
2013-01-01 23:06:00,27.5,26.2,29.76,SW,225,0.0,0.0,95,0.00,,,0.00,meteohub,2013-01-02 07:06:00,
2013-01-01 23:11:00,27.3,26.1,29.76,SW,225,0.0,0.0,95,0.00,,,0.00,meteohub,2013-01-02 07:11:00,
2013-01-01 23:16:00,27.3,26.1,29.76,SW,225,0.0,0.0,95,0.00,,,0.00,meteohub,2013-01-02 07:16:00,
2013-01-01 23:21:00,27.5,26.6,29.77,SW,225,0.0,0.0,96,0.00,,,0.00,meteohub,2013-01-02 07:21:00,
2013-01-01 23:26:00,27.5,26.6,29.77,SW,225,0.0,0.0,96,0.00,,,0.00,meteohub,2013-01-02 07:26:00,
2013-01-01 23:31:00,27.3,26.4,29.77,West,270,3.0,0.0,96,0.00,,,0.00,meteohub,2013-01-02 07:31:00,
2013-01-01 23:36:00,27.5,26.8,29.76,SW,225,2.0,3.0,97,0.00,,,0.00,meteohub,2013-01-02 07:36:00,
2013-01-01 23:41:00,27.5,26.6,29.77,NW,315,0.0,3.0,96,0.00,,,0.00,meteohub,2013-01-02 07:41:00,
2013-01-01 23:46:00,27.5,26.6,29.76,NW,315,0.0,3.0,96,0.00,,,0.00,meteohub,2013-01-02 07:46:00,
2013-01-01 23:51:00,27.7,26.6,29.76,NW,315,0.0,2.0,96,0.00,,,0.00,meteohub,2013-01-02 07:51:00,
2013-01-01 23:56:00,27.7,26.6,29.76,North,0,0.0,0.0,96,0.00,,,0.00,meteohub,2013-01-02 07:56:00,